����������;��������(kWh)
2016-04-11 00:00;86,55
2016-04-11 00:15;88,85
2016-04-11 00:30;89,85
2016-04-11 00:45;86,65
2016-04-11 01:00;82,55
2016-04-11 01:15;80,95
2016-04-11 01:30;81,55
2016-04-11 01:45;80,55
2016-04-11 02:00;82,2
2016-04-11 02:15;78,95
2016-04-11 02:30;80,55
2016-04-11 02:45;80,6
2016-04-11 03:00;79,65
2016-04-11 03:15;80,2
2016-04-11 03:30;79,4
2016-04-11 03:45;80,1
2016-04-11 04:00;77,2
2016-04-11 04:15;79
2016-04-11 04:30;77,65
2016-04-11 04:45;78,6
2016-04-11 05:00;78,5
2016-04-11 05:15;78,55
2016-04-11 05:30;79,3
2016-04-11 05:45;80,2
2016-04-11 06:00;83,9
2016-04-11 06:15;86,5
2016-04-11 06:30;91,7
2016-04-11 06:45;89,6
2016-04-11 07:00;84,6
2016-04-11 07:15;86,1
2016-04-11 07:30;87,85
2016-04-11 07:45;91,25
2016-04-11 08:00;106,4
2016-04-11 08:15;107,25
2016-04-11 08:30;108,7
2016-04-11 08:45;124,15
2016-04-11 09:00;122,1
2016-04-11 09:15;131,5
2016-04-11 09:30;138,75
2016-04-11 09:45;144,15
2016-04-11 10:00;141,15
2016-04-11 10:15;143,3
2016-04-11 10:30;151,25
2016-04-11 10:45;157,9
2016-04-11 11:00;162,15
2016-04-11 11:15;150,9
2016-04-11 11:30;154,75
2016-04-11 11:45;153
2016-04-11 12:00;152,75
2016-04-11 12:15;151,85
2016-04-11 12:30;155,8
2016-04-11 12:45;159,7
2016-04-11 13:00;164,8
2016-04-11 13:15;165,3
2016-04-11 13:30;161,7
2016-04-11 13:45;158,9
2016-04-11 14:00;159,3
2016-04-11 14:15;153,2
2016-04-11 14:30;153,65
2016-04-11 14:45;148,7
2016-04-11 15:00;141,2
2016-04-11 15:15;137,25
2016-04-11 15:30;136,65
2016-04-11 15:45;132,75
2016-04-11 16:00;131,05
2016-04-11 16:15;127,95
2016-04-11 16:30;122,7
2016-04-11 16:45;121,35
2016-04-11 17:00;117,85
2016-04-11 17:15;113,6
2016-04-11 17:30;113
2016-04-11 17:45;110,4
2016-04-11 18:00;107,25
2016-04-11 18:15;103,15
2016-04-11 18:30;104,35
2016-04-11 18:45;105,4
2016-04-11 19:00;105,1
2016-04-11 19:15;106,75
2016-04-11 19:30;99,2
2016-04-11 19:45;101,35
2016-04-11 20:00;101,65
2016-04-11 20:15;104,9
2016-04-11 20:30;102,85
2016-04-11 20:45;107,95
2016-04-11 21:00;108,85
2016-04-11 21:15;102,7
2016-04-11 21:30;102
2016-04-11 21:45;96,45
2016-04-11 22:00;94,7
2016-04-11 22:15;91,6
2016-04-11 22:30;89,8
2016-04-11 22:45;89,05
2016-04-11 23:00;82,6
2016-04-11 23:15;80
2016-04-11 23:30;78,45
2016-04-11 23:45;76,1
2016-04-12 00:00;75,8
2016-04-12 00:15;77,55
2016-04-12 00:30;74,5
2016-04-12 00:45;77
2016-04-12 01:00;76,3
2016-04-12 01:15;75,65
2016-04-12 01:30;75,95
2016-04-12 01:45;75,55
2016-04-12 02:00;75,4
2016-04-12 02:15;73,4
2016-04-12 02:30;75,9
2016-04-12 02:45;72,45
2016-04-12 03:00;74,25
2016-04-12 03:15;73,8
2016-04-12 03:30;74,25
2016-04-12 03:45;73,65
2016-04-12 04:00;77,7
2016-04-12 04:15;76,1
2016-04-12 04:30;77,05
2016-04-12 04:45;82,05
2016-04-12 05:00;76,65
2016-04-12 05:15;75,9
2016-04-12 05:30;80,15
2016-04-12 05:45;78,1
2016-04-12 06:00;77,95
2016-04-12 06:15;81,05
2016-04-12 06:30;87,85
2016-04-12 06:45;83,55
2016-04-12 07:00;82
2016-04-12 07:15;78,1
2016-04-12 07:30;81
2016-04-12 07:45;83,9
2016-04-12 08:00;86,45
2016-04-12 08:15;87,1
2016-04-12 08:30;88,85
2016-04-12 08:45;94,65
2016-04-12 09:00;97,5
2016-04-12 09:15;110,1
2016-04-12 09:30;114,95
2016-04-12 09:45;122,1
2016-04-12 10:00;122,95
2016-04-12 10:15;130,5
2016-04-12 10:30;134,8
2016-04-12 10:45;137,75
2016-04-12 11:00;128,35
2016-04-12 11:15;126,8
2016-04-12 11:30;133,3
2016-04-12 11:45;130,55
2016-04-12 12:00;132,4
2016-04-12 12:15;130,55
2016-04-12 12:30;135,55
2016-04-12 12:45;136,65
2016-04-12 13:00;137,85
2016-04-12 13:15;135,75
2016-04-12 13:30;137,25
2016-04-12 13:45;137,35
2016-04-12 14:00;134,7
2016-04-12 14:15;135
2016-04-12 14:30;129,55
2016-04-12 14:45;130,55
2016-04-12 15:00;128,4
2016-04-12 15:15;126,95
2016-04-12 15:30;123
2016-04-12 15:45;120,95
2016-04-12 16:00;118,15
2016-04-12 16:15;119,1
2016-04-12 16:30;113,95
2016-04-12 16:45;112,05
2016-04-12 17:00;116,7
2016-04-12 17:15;111,85
2016-04-12 17:30;106,15
2016-04-12 17:45;104,05
2016-04-12 18:00;104,75
2016-04-12 18:15;101,2
2016-04-12 18:30;99,35
2016-04-12 18:45;101,85
2016-04-12 19:00;101,3
2016-04-12 19:15;101,05
2016-04-12 19:30;98,8
2016-04-12 19:45;95,8
2016-04-12 20:00;96,45
2016-04-12 20:15;95,65
2016-04-12 20:30;101,2
2016-04-12 20:45;101,3
2016-04-12 21:00;101,05
2016-04-12 21:15;97,05
2016-04-12 21:30;97,45
2016-04-12 21:45;92,6
2016-04-12 22:00;92,9
2016-04-12 22:15;90,55
2016-04-12 22:30;86,5
2016-04-12 22:45;80,65
2016-04-12 23:00;80,1
2016-04-12 23:15;76,65
2016-04-12 23:30;73,8
2016-04-12 23:45;74,6
2016-04-13 00:00;74,4
2016-04-13 00:15;75,9
2016-04-13 00:30;74,15
2016-04-13 00:45;76,05
2016-04-13 01:00;75,05
2016-04-13 01:15;73,7
2016-04-13 01:30;74,25
2016-04-13 01:45;72,5
2016-04-13 02:00;72,95
2016-04-13 02:15;71,6
2016-04-13 02:30;72,5
2016-04-13 02:45;70,55
2016-04-13 03:00;71,75
2016-04-13 03:15;72,85
2016-04-13 03:30;71,25
2016-04-13 03:45;71,6
2016-04-13 04:00;74,35
2016-04-13 04:15;72,45
2016-04-13 04:30;72,2
2016-04-13 04:45;76,7
2016-04-13 05:00;72,7
2016-04-13 05:15;72,05
2016-04-13 05:30;73,6
2016-04-13 05:45;72,4
2016-04-13 06:00;75,45
2016-04-13 06:15;77,3
2016-04-13 06:30;84,6
2016-04-13 06:45;78,55
2016-04-13 07:00;77,45
2016-04-13 07:15;73,15
2016-04-13 07:30;74,95
2016-04-13 07:45;80,8
2016-04-13 08:00;81,6
2016-04-13 08:15;83
2016-04-13 08:30;90,75
2016-04-13 08:45;91,5
2016-04-13 09:00;92,65
2016-04-13 09:15;97
2016-04-13 09:30;102,45
2016-04-13 09:45;107,85
2016-04-13 10:00;112,05
2016-04-13 10:15;119,6
2016-04-13 10:30;129,65
2016-04-13 10:45;135
2016-04-13 11:00;136,3
2016-04-13 11:15;132,4
2016-04-13 11:30;133,5
2016-04-13 11:45;130,1
2016-04-13 12:00;133,4
2016-04-13 12:15;135,05
2016-04-13 12:30;136,2
2016-04-13 12:45;137,45
2016-04-13 13:00;139,7
2016-04-13 13:15;136,6
2016-04-13 13:30;145,6
2016-04-13 13:45;141,3
2016-04-13 14:00;138,85
2016-04-13 14:15;135,85
2016-04-13 14:30;134
2016-04-13 14:45;131,1
2016-04-13 15:00;132,8
2016-04-13 15:15;128,8
2016-04-13 15:30;126,55
2016-04-13 15:45;124,2
2016-04-13 16:00;120,35
2016-04-13 16:15;120,4
2016-04-13 16:30;118,1
2016-04-13 16:45;112,95
2016-04-13 17:00;110,65
2016-04-13 17:15;111,65
2016-04-13 17:30;108,95
2016-04-13 17:45;112,75
2016-04-13 18:00;110,95
2016-04-13 18:15;107,7
2016-04-13 18:30;103,1
2016-04-13 18:45;104,2
2016-04-13 19:00;102,2
2016-04-13 19:15;100,65
2016-04-13 19:30;99,7
2016-04-13 19:45;98,65
2016-04-13 20:00;94,3
2016-04-13 20:15;99,65
2016-04-13 20:30;99,7
2016-04-13 20:45;101,95
2016-04-13 21:00;96,6
2016-04-13 21:15;97,6
2016-04-13 21:30;94,75
2016-04-13 21:45;91,2
2016-04-13 22:00;86,15
2016-04-13 22:15;86,9
2016-04-13 22:30;85,1
2016-04-13 22:45;89
2016-04-13 23:00;84,7
2016-04-13 23:15;86,05
2016-04-13 23:30;82,45
2016-04-13 23:45;82,7
2016-04-14 00:00;81,65
2016-04-14 00:15;82,15
2016-04-14 00:30;82,4
2016-04-14 00:45;79,65
2016-04-14 01:00;75,2
2016-04-14 01:15;73,2
2016-04-14 01:30;73,5
2016-04-14 01:45;73,75
2016-04-14 02:00;72,95
2016-04-14 02:15;73,45
2016-04-14 02:30;72,55
2016-04-14 02:45;72,85
2016-04-14 03:00;72,85
2016-04-14 03:15;73,2
2016-04-14 03:30;73
2016-04-14 03:45;73
2016-04-14 04:00;76,65
2016-04-14 04:15;74,6
2016-04-14 04:30;76,5
2016-04-14 04:45;79,9
2016-04-14 05:00;78,5
2016-04-14 05:15;73,5
2016-04-14 05:30;73,8
2016-04-14 05:45;74,9
2016-04-14 06:00;77
2016-04-14 06:15;78,7
2016-04-14 06:30;85,5
2016-04-14 06:45;82,25
2016-04-14 07:00;78
2016-04-14 07:15;77,85
2016-04-14 07:30;79,3
2016-04-14 07:45;84,95
2016-04-14 08:00;87,25
2016-04-14 08:15;87,85
2016-04-14 08:30;93,8
2016-04-14 08:45;92,45
2016-04-14 09:00;90,25
2016-04-14 09:15;102,35
2016-04-14 09:30;111,2
2016-04-14 09:45;109,6
2016-04-14 10:00;112,05
2016-04-14 10:15;121,65
2016-04-14 10:30;124,85
2016-04-14 10:45;127,1
2016-04-14 11:00;126,1
2016-04-14 11:15;122,85
2016-04-14 11:30;126,65
2016-04-14 11:45;131,55
2016-04-14 12:00;131,4
2016-04-14 12:15;128,5
2016-04-14 12:30;128
2016-04-14 12:45;128,9
2016-04-14 13:00;129,2
2016-04-14 13:15;135,3
2016-04-14 13:30;138,45
2016-04-14 13:45;136,15
2016-04-14 14:00;136
2016-04-14 14:15;129,8
2016-04-14 14:30;129,6
2016-04-14 14:45;130,55
2016-04-14 15:00;129,4
2016-04-14 15:15;128,7
2016-04-14 15:30;124,4
2016-04-14 15:45;122,7
2016-04-14 16:00;120,85
2016-04-14 16:15;123,2
2016-04-14 16:30;120,9
2016-04-14 16:45;116,2
2016-04-14 17:00;115,6
2016-04-14 17:15;113,3
2016-04-14 17:30;103,75
2016-04-14 17:45;104,85
2016-04-14 18:00;101,2
2016-04-14 18:15;99
2016-04-14 18:30;94,85
2016-04-14 18:45;95,6
2016-04-14 19:00;95,65
2016-04-14 19:15;94,4
2016-04-14 19:30;95,95
2016-04-14 19:45;95,95
2016-04-14 20:00;103,25
2016-04-14 20:15;104,35
2016-04-14 20:30;107,45
2016-04-14 20:45;105,6
2016-04-14 21:00;102
2016-04-14 21:15;94,05
2016-04-14 21:30;92,95
2016-04-14 21:45;87,5
2016-04-14 22:00;84,35
2016-04-14 22:15;82,7
2016-04-14 22:30;81,2
2016-04-14 22:45;80,1
2016-04-14 23:00;81
2016-04-14 23:15;78,1
2016-04-14 23:30;78,65
2016-04-14 23:45;76,75
2016-04-15 00:00;75
2016-04-15 00:15;74,75
2016-04-15 00:30;72,9
2016-04-15 00:45;72,6
2016-04-15 01:00;73,4
2016-04-15 01:15;71,15
2016-04-15 01:30;71,2
2016-04-15 01:45;73,1
2016-04-15 02:00;71,45
2016-04-15 02:15;71,3
2016-04-15 02:30;71,75
2016-04-15 02:45;76,3
2016-04-15 03:00;77
2016-04-15 03:15;76,8
2016-04-15 03:30;78,8
2016-04-15 03:45;77,95
2016-04-15 04:00;75,25
2016-04-15 04:15;72,4
2016-04-15 04:30;71,9
2016-04-15 04:45;74,3
2016-04-15 05:00;73,1
2016-04-15 05:15;71,85
2016-04-15 05:30;70,15
2016-04-15 05:45;72,7
2016-04-15 06:00;74,3
2016-04-15 06:15;79,1
2016-04-15 06:30;82,6
2016-04-15 06:45;82,8
2016-04-15 07:00;79,4
2016-04-15 07:15;76,1
2016-04-15 07:30;75,3
2016-04-15 07:45;82,15
2016-04-15 08:00;79,5
2016-04-15 08:15;87,05
2016-04-15 08:30;88,45
2016-04-15 08:45;89,85
2016-04-15 09:00;93
2016-04-15 09:15;101,15
2016-04-15 09:30;103,1
2016-04-15 09:45;105,95
2016-04-15 10:00;113,3
2016-04-15 10:15;116,9
2016-04-15 10:30;121,3
2016-04-15 10:45;133,25
2016-04-15 11:00;130,7
2016-04-15 11:15;138,4
2016-04-15 11:30;138,2
2016-04-15 11:45;133,1
2016-04-15 12:00;135,05
2016-04-15 12:15;135,1
2016-04-15 12:30;134,4
2016-04-15 12:45;142,1
2016-04-15 13:00;139,6
2016-04-15 13:15;144,4
2016-04-15 13:30;145,3
2016-04-15 13:45;146,45
2016-04-15 14:00;146,45
2016-04-15 14:15;143
2016-04-15 14:30;141,15
2016-04-15 14:45;137,75
2016-04-15 15:00;133,35
2016-04-15 15:15;127,05
2016-04-15 15:30;124,05
2016-04-15 15:45;122,45
2016-04-15 16:00;121,4
2016-04-15 16:15;115,85
2016-04-15 16:30;115,25
2016-04-15 16:45;110,6
2016-04-15 17:00;106,7
2016-04-15 17:15;104,15
2016-04-15 17:30;103,7
2016-04-15 17:45;100,8
2016-04-15 18:00;98,6
2016-04-15 18:15;96,85
2016-04-15 18:30;95,9
2016-04-15 18:45;97,8
2016-04-15 19:00;93,2
2016-04-15 19:15;95,65
2016-04-15 19:30;97,55
2016-04-15 19:45;96,45
2016-04-15 20:00;98,35
2016-04-15 20:15;91,6
2016-04-15 20:30;94
2016-04-15 20:45;97,45
2016-04-15 21:00;94,65
2016-04-15 21:15;92
2016-04-15 21:30;91,6
2016-04-15 21:45;84,9
2016-04-15 22:00;87,15
2016-04-15 22:15;86,6
2016-04-15 22:30;88
2016-04-15 22:45;87,45
2016-04-15 23:00;85
2016-04-15 23:15;76,55
2016-04-15 23:30;75,8
2016-04-15 23:45;73,85
2016-04-16 00:00;73,3
2016-04-16 00:15;72,9
2016-04-16 00:30;73,2
2016-04-16 00:45;72,75
2016-04-16 01:00;72,6
2016-04-16 01:15;72,4
2016-04-16 01:30;70,45
2016-04-16 01:45;71,1
2016-04-16 02:00;69,7
2016-04-16 02:15;71,7
2016-04-16 02:30;69,75
2016-04-16 02:45;71,8
2016-04-16 03:00;71,35
2016-04-16 03:15;70,7
2016-04-16 03:30;70,85
2016-04-16 03:45;70,3
2016-04-16 04:00;75,8
2016-04-16 04:15;72,05
2016-04-16 04:30;72,75
2016-04-16 04:45;74,9
2016-04-16 05:00;75,45
2016-04-16 05:15;71
2016-04-16 05:30;71,8
2016-04-16 05:45;70,85
2016-04-16 06:00;73,7
2016-04-16 06:15;76,45
2016-04-16 06:30;76,7
2016-04-16 06:45;77,4
2016-04-16 07:00;72,1
2016-04-16 07:15;74,55
2016-04-16 07:30;73,45
2016-04-16 07:45;75,5
2016-04-16 08:00;74,95
2016-04-16 08:15;70,1
2016-04-16 08:30;71
2016-04-16 08:45;71,55
2016-04-16 09:00;73,8
2016-04-16 09:15;75,3
2016-04-16 09:30;71,7
2016-04-16 09:45;68,95
2016-04-16 10:00;70,95
2016-04-16 10:15;74,2
2016-04-16 10:30;72,1
2016-04-16 10:45;75,05
2016-04-16 11:00;70,4
2016-04-16 11:15;68,45
2016-04-16 11:30;68,4
2016-04-16 11:45;69,55
2016-04-16 12:00;69
2016-04-16 12:15;71,2
2016-04-16 12:30;66,2
2016-04-16 12:45;75,3
2016-04-16 13:00;71,95
2016-04-16 13:15;69,45
2016-04-16 13:30;67,65
2016-04-16 13:45;68
2016-04-16 14:00;67,95
2016-04-16 14:15;68,65
2016-04-16 14:30;70
2016-04-16 14:45;71,35
2016-04-16 15:00;67,8
2016-04-16 15:15;72,55
2016-04-16 15:30;74,35
2016-04-16 15:45;77,6
2016-04-16 16:00;77,15
2016-04-16 16:15;73,7
2016-04-16 16:30;77,05
2016-04-16 16:45;73,2
2016-04-16 17:00;72,45
2016-04-16 17:15;71,1
2016-04-16 17:30;69,45
2016-04-16 17:45;71
2016-04-16 18:00;75,55
2016-04-16 18:15;75,05
2016-04-16 18:30;73,5
2016-04-16 18:45;74
2016-04-16 19:00;74,35
2016-04-16 19:15;73,75
2016-04-16 19:30;77,4
2016-04-16 19:45;83,35
2016-04-16 20:00;88,5
2016-04-16 20:15;87,05
2016-04-16 20:30;90,15
2016-04-16 20:45;87,3
2016-04-16 21:00;90,75
2016-04-16 21:15;87,2
2016-04-16 21:30;87,75
2016-04-16 21:45;82,4
2016-04-16 22:00;80,45
2016-04-16 22:15;79,85
2016-04-16 22:30;79,4
2016-04-16 22:45;78,2
2016-04-16 23:00;76,75
2016-04-16 23:15;73,7
2016-04-16 23:30;78,95
2016-04-16 23:45;78,8
2016-04-17 00:00;79,2
2016-04-17 00:15;80,95
2016-04-17 00:30;73,95
2016-04-17 00:45;72,8
2016-04-17 01:00;73,35
2016-04-17 01:15;71,45
2016-04-17 01:30;71,05
2016-04-17 01:45;72,1
2016-04-17 02:00;71,5
2016-04-17 02:15;71,15
2016-04-17 02:30;71,4
2016-04-17 02:45;69,3
2016-04-17 03:00;71
2016-04-17 03:15;70,6
2016-04-17 03:30;70,05
2016-04-17 03:45;70,35
2016-04-17 04:00;74,45
2016-04-17 04:15;72,75
2016-04-17 04:30;73,1
2016-04-17 04:45;73,95
2016-04-17 05:00;72,85
2016-04-17 05:15;70,65
2016-04-17 05:30;68,85
2016-04-17 05:45;69
2016-04-17 06:00;75,75
2016-04-17 06:15;78,6
2016-04-17 06:30;80,5
2016-04-17 06:45;78,2
2016-04-17 07:00;76,95
2016-04-17 07:15;74,8
2016-04-17 07:30;73,2
2016-04-17 07:45;74,9
2016-04-17 08:00;74,4
2016-04-17 08:15;75,8
2016-04-17 08:30;73,35
2016-04-17 08:45;71,05
2016-04-17 09:00;65,35
2016-04-17 09:15;67,7
2016-04-17 09:30;63,35
2016-04-17 09:45;61,9
2016-04-17 10:00;61,6
2016-04-17 10:15;64,95
2016-04-17 10:30;66,55
2016-04-17 10:45;71,65
2016-04-17 11:00;70,1
2016-04-17 11:15;67,75
2016-04-17 11:30;66,55
2016-04-17 11:45;73,35
2016-04-17 12:00;78,5
2016-04-17 12:15;75,1
2016-04-17 12:30;76,9
2016-04-17 12:45;67,9
2016-04-17 13:00;74,3
2016-04-17 13:15;71,4
2016-04-17 13:30;71,8
2016-04-17 13:45;70,85
2016-04-17 14:00;69,05
2016-04-17 14:15;69,2
2016-04-17 14:30;75,8
2016-04-17 14:45;71,9
2016-04-17 15:00;69,3
2016-04-17 15:15;70,5
2016-04-17 15:30;69,9
2016-04-17 15:45;71,85
2016-04-17 16:00;78
2016-04-17 16:15;74,9
2016-04-17 16:30;74,05
2016-04-17 16:45;73,95
2016-04-17 17:00;71,2
2016-04-17 17:15;68,2
2016-04-17 17:30;71,45
2016-04-17 17:45;72,7
2016-04-17 18:00;75,3
2016-04-17 18:15;72
2016-04-17 18:30;70,65
2016-04-17 18:45;69,9
2016-04-17 19:00;71,95
2016-04-17 19:15;71,45
2016-04-17 19:30;71,45
2016-04-17 19:45;74,05
2016-04-17 20:00;71,65
2016-04-17 20:15;75,65
2016-04-17 20:30;79,8
2016-04-17 20:45;77,65
2016-04-17 21:00;81,8
2016-04-17 21:15;82,35
2016-04-17 21:30;86,25
2016-04-17 21:45;88,6
2016-04-17 22:00;84,9
2016-04-17 22:15;83,85
2016-04-17 22:30;84,85
2016-04-17 22:45;77,5
2016-04-17 23:00;76,25
2016-04-17 23:15;74,25
2016-04-17 23:30;73,65
2016-04-17 23:45;73,5

